SCP
0 0 0 0 0 0 0 0 -0 0 0 0 0 0 0 0 0 0 0 0 -1 -0 -0 -0 -0 -1 -1 -0 -0 -0 -0 -0 -0 -0 -0 -0 -0 0 0 0 0 0 0 0 0 0 -0 0 0
0 0 0 0 0 0 0 0 -0 0 0 0 0 0 0 0 0 0 0 0 -0 -0 0 -0 -0 -0 -0 -0 -0 -0 -0 -0 -0 -0 -0 -0 -0 0 0 0 0 0 0 0 0 0 0 -0 -0
0 0 0 0 0 0 0 0 0 0 0 0 0 0 0 0 0 0 0 0 0 -0 0 -0 -0 -0 -0 -0 -0 -0 -0 -0 -0 -0 -0 -0 0 0 0 0 0 0 0 0 0 0 0 0 -0
0 0 0 0 0 0 0 -0 0 0 0 0 0 0 0 0 1 0 0 0 0 0 0 0 0 -0 -0 -0 -0 -0 -0 -0 -0 -0 -0 -0 0 0 0 0 0 0 0 0 0 0 0 0 0
0 0 0 0 0 0 -0 0 0 -0 0 0 0 0 0 0 1 0 0 0 0 0 1 0 0 0 0 0 0 0 0 -0 -0 -0 -0 -0 0 0 -0 -0 -0 -0 -0 0 0 0 0 -0 -0
0 0 0 0 0 0 0 0 0 0 0 0 0 0 0 0 0 0 0 0 0 0 1 1 1 1 1 0 0 0 0 0 0 0 0 0 0 0 0 -0 -0 0 0 0 0 -0 -0 -0 -0
0 0 0 0 0 0 0 0 0 0 0 0 0 0 0 0 0 0 0 0 0 0 1 1 1 1 1 1 0 0 1 0 0 0 0 0 0 -0 -0 -0 -0 0 0 0 0 0 -0 -0 -0
0 0 0 0 0 0 0 0 0 0 0 0 0 0 0 0 0 0 -0 -0 0 0 1 1 1 1 1 1 1 1 1 1 1 0 0 0 0 0 0 -0 -0 -0 0 0 0 0 -0 -0 -0
0 0 0 0 0 0 0 0 0 0 0 0 0 0 0 0 0 0 0 0 0 0 1 1 0 1 0 1 1 1 1 1 1 1 0 0 0 0 0 -0 0 0 0 0 0 0 -0 -0 -0
0 0 0 0 0 0 0 0 0 0 0 0 0 0 0 0 0 0 0 0 0 0 0 1 1 0 0 0 1 1 1 1 1 1 1 0 0 -0 -0 -0 0 0 0 0 0 0 0 0 -0
0 0 0 0 0 0 0 0 0 0 0 0 0 0 0 0 0 0 0 0 0 0 1 1 1 1 0 -0 3 1 1 1 1 1 1 1 0 0 0 0 0 0 0 0 0 0 0 0 0
0 0 0 0 -0 0 0 0 0 0 0 0 0 0 0 0 0 0 0 0 0 0 0 1 3 3 1 0 2 2 1 1 1 1 1 1 1 1 0 0 0 0 0 0 0 0 0 0 0
0 0 -0 0 0 0 0 0 0 0 0 0 0 0 0 0 0 0 0 0 0 0 0 1 1 2 3 2 2 2 1 1 1 1 1 1 1 2 2 0 0 0 0 0 0 0 0 0 0
0 -0 0 0 0 0 0 0 0 0 0 0 0 0 0 0 0 0 0 0 0 0 0 0 4 5 4 3 2 5 3 2 2 1 1 1 2 2 1 2 1 1 0 0 0 0 0 0 0
0 0 0 0 0 0 0 0 0 0 0 0 0 0 0 0 0 0 0 0 0 0 0 0 0 8 6 5 3 4 5 3 2 2 3 1 1 3 3 2 2 1 1 1 0 0 1 1 0
0 0 0 0 -0 0 0 0 -0 -0 0 0 0 0 0 0 0 0 0 0 0 0 0 1 0 2 7 6 6 5 6 4 3 2 2 3 1 3 5 3 2 2 4 2 3 2 1 1 0
0 0 0 -0 -0 0 0 0 -0 0 0 0 0 0 0 0 0 0 0 0 0 0 0 1 1 3 6 6 7 8 5 7 6 6 2 4 3 3 6 3 2 2 4 3 3 3 1 1 1
0 0 -0 0 0 0 0 0 0 0 0 0 0 0 0 0 0 0 0 0 0 0 0 0 1 1 3 7 7 7 6 5 5 4 5 4 6 5 6 3 3 3 2 2 2 1 1 1 1
0 0 0 0 0 0 0 0 0 0 0 0 0 0 0 0 0 0 0 0 0 0 1 0 0 1 1 5 6 6 6 6 5 5 4 4 6 6 4 6 3 5 2 3 4 3 2 1 2
0 0 0 0 0 0 0 0 0 0 0 0 0 0 0 0 0 0 0 0 0 0 0 1 1 -1 -1 2 5 5 5 6 5 5 6 6 5 4 4 2 3 3 3 2 4 2 1 2 2
0 0 0 0 0 0 0 0 -0 -0 -0 -0 0 0 0 0 0 0 0 0 0 0 0 1 2 3 2 -1 1 4 6 6 5 5 5 4 5 5 4 3 2 3 3 2 2 5 2 2 2
0 -0 -0 0 0 0 0 0 0 0 0 0 0 0 0 0 0 0 0 0 0 0 0 0 1 2 1 1 1 2 4 6 6 5 6 6 4 6 6 6 4 3 4 2 4 3 3 4 3
0 0 0 0 0 0 0 0 -0 -0 -0 0 0 0 0 0 0 0 0 0 0 0 0 0 0 0 0 1 1 1 2 3 5 6 5 5 7 6 6 8 7 6 7 5 6 3 7 5 4
0 0 0 0 -0 0 -0 -0 -0 0 0 0 0 0 0 0 0 0 0 0 0 0 0 0 0 0 0 0 1 1 2 3 5 5 7 7 7 9 6 8 9 9 6 10 7 8 7 6 4
0 -0 0 0 0 0 0 0 0 0 0 0 0 0 0 0 0 0 0 0 0 0 0 0 0 0 0 0 0 1 1 2 4 4 6 6 7 8 8 9 11 11 10 7 9 8 9 8 6
0 0 0 0 0 0 0 0 0 0 0 0 0 0 0 0 0 0 0 0 0 0 0 0 0 0 0 0 0 1 1 3 4 5 5 6 6 7 7 8 8 10 7 8 11 10 10 8 7
0 0 0 0 0 0 0 0 -0 0 0 0 0 0 0 0 0 0 0 0 0 0 0 0 0 0 0 0 0 0 0 1 3 4 5 4 5 5 3 4 1 0 3 6 10 9 9 8 8
0 0 0 0 0 0 0 0 0 0 0 0 0 0 0 0 0 0 0 0 0 0 0 0 1 1 0 0 0 0 0 1 1 2 3 3 3 2 0 1 0 0 0 2 5 7 7 6 6
0 0 0 0 0 0 0 0 0 0 0 0 0 0 0 0 0 0 0 0 0 0 0 0 0 0 0 0 0 0 0 0 1 1 2 2 0 0 0 0 0 0 0 2 2 1 4 4 3
0 0 0 0 0 0 0 0 0 0 0 0 0 0 0 0 0 0 0 0 0 0 0 0 0 0 0 0 0 0 0 0 0 0 1 0 0 0 0 0 0 0 0 0 1 0 1 2 3
Wind_Speed_500mb
21 26 29 33 14 15 35 42 46 3 13 6 15 6 27 49 25 17 21 18 28 36 46 44 44 44 43 42 39 34 33 31 30 27 23 21 20 22 26 29 29 28 25 20 17 16 17 18 17
24 25 29 37 21 27 30 42 39 18 31 14 4 9 17 35 33 34 25 27 26 32 45 45 46 44 43 41 39 34 33 31 30 27 24 20 20 23 25 25 24 22 19 16 15 14 16 15 14
24 22 33 20 26 33 33 25 10 18 17 4 4 8 16 18 29 22 26 29 22 26 43 43 46 47 44 40 38 34 33 30 30 27 24 20 21 22 25 25 22 18 15 13 13 14 14 14 13
19 29 31 25 39 44 45 22 33 3 9 0 8 19 22 21 12 16 26 30 26 25 33 43 43 44 44 41 39 36 34 30 30 28 24 20 20 22 22 22 20 18 15 14 13 12 12 12 10
33 30 26 31 41 46 29 17 24 20 2 9 5 32 37 23 21 22 25 26 24 27 31 38 42 42 40 39 37 35 36 32 31 31 28 22 20 21 21 22 21 19 17 15 13 13 12 11 9
39 41 28 33 42 42 34 23 16 16 17 6 5 17 35 24 20 17 19 22 23 27 29 25 41 42 41 38 37 34 34 37 35 36 32 27 23 23 23 24 23 22 19 17 15 13 12 12 10
38 26 36 41 40 37 31 12 20 18 25 10 15 4 36 28 17 12 13 17 22 26 22 18 42 44 42 39 37 36 35 36 40 39 36 30 28 26 26 26 26 24 22 19 17 15 15 14 11
51 28 46 42 36 39 30 40 36 21 28 11 9 6 22 20 13 4 11 15 21 26 25 20 42 45 43 42 41 38 36 36 39 43 38 33 30 29 30 30 30 28 26 23 20 18 17 15 12
55 30 33 47 45 33 27 2 40 10 31 22 10 18 14 15 5 7 10 14 18 29 29 21 18 42 45 42 42 41 39 39 41 43 43 40 36 34 35 35 35 31 28 26 23 21 20 18 14
41 32 50 42 40 36 47 38 30 15 40 40 34 33 27 19 10 12 16 18 22 26 30 29 28 22 34 34 37 46 45 45 47 50 49 47 42 40 39 40 40 37 34 30 27 25 22 20 16
54 39 38 51 49 44 18 24 18 26 38 30 26 27 27 21 17 15 16 24 18 30 34 40 42 33 27 39 48 35 49 52 55 55 55 52 49 41 35 37 40 41 38 35 32 28 24 21 16
39 50 53 49 53 14 17 23 34 35 38 35 26 32 31 27 30 29 32 31 29 26 36 40 48 43 38 34 49 47 40 57 60 59 59 58 56 46 46 47 43 41 44 39 36 31 27 25 19
44 37 51 55 42 13 21 28 31 41 39 36 33 31 28 33 38 38 38 40 35 26 31 48 45 41 37 41 46 45 38 46 46 53 59 61 57 53 54 46 41 37 42 42 40 32 24 24 26
35 48 41 27 37 31 31 33 34 39 36 35 31 29 34 32 32 33 34 40 36 30 37 26 43 40 43 48 55 51 51 46 56 49 56 61 64 63 56 59 53 44 37 39 30 37 35 36 31
46 13 29 39 26 31 31 30 34 44 39 37 32 29 31 31 31 30 31 27 38 41 36 39 18 48 58 61 53 61 60 57 58 58 59 63 66 69 66 65 62 54 43 43 41 35 42 44 33
24 26 27 34 37 35 29 28 29 38 46 35 17 27 33 35 32 34 31 31 32 19 15 22 34 28 53 61 64 59 60 61 63 61 62 71 68 77 78 78 69 68 54 50 49 50 52 49 43
22 27 36 35 45 26 29 26 30 24 17 20 24 27 34 35 35 35 32 33 21 16 17 25 33 32 37 60 66 69 61 68 59 61 66 73 77 72 81 84 78 75 72 68 69 70 64 52 39
35 36 30 34 30 24 23 28 26 31 27 28 37 29 31 30 28 28 31 32 34 39 38 40 41 39 38 55 57 61 66 62 79 85 66 77 80 80 86 83 83 77 80 80 77 75 67 58 45
37 24 25 13 8 10 13 17 24 33 35 31 32 33 33 28 26 27 29 32 31 29 40 37 38 43 44 41 60 64 70 74 71 81 84 73 83 84 82 91 85 76 77 80 76 71 59 61 52
19 17 26 25 22 18 21 26 28 30 34 38 36 34 32 23 26 21 21 18 18 27 35 32 25 31 48 44 49 65 68 72 74 84 78 83 85 89 85 83 91 95 83 81 79 71 65 67 62
22 24 25 27 25 12 17 31 39 37 48 48 33 23 15 26 24 20 21 27 23 18 17 15 21 17 24 31 41 54 67 70 70 73 78 83 79 91 89 83 79 90 97 94 87 78 77 73 71
23 24 25 18 20 20 24 27 31 29 26 29 30 28 22 33 32 29 25 28 31 34 37 36 40 40 38 44 46 48 64 80 90 87 83 80 84 87 85 87 84 78 85 89 91 88 82 75 61
22 19 18 16 24 28 33 23 28 31 32 5 28 31 28 21 24 31 32 32 33 32 29 34 40 46 52 54 53 60 67 71 82 79 85 84 82 91 95 93 95 88 91 92 86 78 88 87 80
15 17 25 29 28 28 39 36 31 14 20 17 21 18 18 19 19 23 26 31 30 28 33 43 39 47 49 56 66 67 75 72 76 87 87 84 92 94 102 107 112 102 93 89 83 85 79 82 73
23 23 20 24 23 24 17 13 16 13 20 14 12 12 11 14 18 24 31 38 40 40 35 42 44 50 41 44 68 73 69 77 77 90 90 91 90 102 111 112 111 109 106 102 86 82 86 78 68
20 23 14 18 21 26 34 13 14 2 17 19 10 13 12 14 21 22 31 32 34 39 42 44 45 50 56 57 62 76 72 63 74 78 100 93 93 108 104 102 108 109 113 102 104 89 81 74 70
13 21 22 18 23 23 24 36 27 22 20 23 14 20 20 20 21 33 38 28 36 38 39 39 49 50 53 54 62 67 68 66 64 75 83 103 97 102 96 100 101 71 83 94 90 80 70 67 62
25 19 16 12 8 16 19 15 10 19 10 4 16 23 19 23 31 30 27 32 32 37 43 44 41 45 48 54 59 61 64 61 62 70 82 88 96 92 70 58 109 129 128 71 72 71 65 61 60
16 19 22 22 15 8 10 13 16 15 11 14 19 27 31 32 30 32 35 39 40 42 44 47 45 44 46 53 58 61 63 64 59 53 66 71 78 76 39 42 32 87 46 59 63 59 56 51 51
21 21 19 11 21 19 20 27 31 10 12 22 30 32 33 28 32 39 43 42 43 48 50 47 49 45 49 53 58 59 59 63 64 67 52 60 71 83 57 44 38 35 60 42 39 55 49 51 55
Wind_Direction_500mb
256 301 291 266 247 231 253 246 262 92 261 46 32 340 341 48 35 108 109 118 160 157 150 154 158 160 161 162 161 164 161 159 155 152 147 144 142 141 138 140 143 138 135 134 129 132 130 129 125
258 286 284 260 238 241 238 245 257 157 83 76 347 223 259 58 57 101 110 132 165 154 154 156 160 163 165 167 165 171 169 167 164 160 154 149 149 151 150 153 151 145 144 141 141 141 135 133 125
258 271 276 243 238 241 250 340 62 67 59 54 234 249 30 9 56 79 113 141 153 163 161 161 162 164 168 170 173 176 177 176 175 170 165 156 158 164 164 164 162 160 156 154 154 149 142 139 129
265 261 243 259 246 240 254 231 243 27 155 290 328 98 81 56 61 88 126 150 139 157 163 166 167 169 171 172 178 183 184 187 186 181 177 170 171 174 177 179 178 174 170 169 168 160 154 152 144
249 254 245 240 241 253 251 271 198 222 101 159 179 105 92 78 84 109 130 149 147 150 185 175 174 173 177 180 183 189 193 193 197 193 187 185 185 186 188 190 190 186 179 181 181 177 172 172 173
239 228 246 234 240 237 259 207 210 272 279 252 255 101 104 95 98 118 137 153 157 160 193 182 182 181 182 186 187 192 201 199 201 201 198 194 195 198 200 202 199 195 190 189 193 189 190 194 199
230 236 233 243 252 243 237 211 272 249 269 275 25 149 119 89 83 127 152 158 165 167 204 206 191 186 187 189 193 194 197 204 200 203 206 205 206 204 209 212 209 205 200 198 200 202 205 209 211
222 241 245 244 246 257 256 210 215 243 269 22 73 241 89 80 58 126 175 176 179 171 192 237 193 191 192 194 196 198 198 202 202 201 209 216 220 217 217 219 217 212 208 205 208 211 218 221 226
218 234 239 244 250 242 251 227 247 258 298 303 290 289 325 68 8 297 221 196 191 176 182 205 217 197 197 203 201 202 203 202 204 208 212 217 227 226 225 223 221 219 216 213 214 219 230 236 239
225 224 236 241 249 275 280 312 230 230 247 258 257 262 277 280 262 257 272 223 214 189 179 203 218 229 200 196 214 207 207 207 209 213 217 222 224 233 235 228 228 222 217 216 220 225 232 246 255
218 235 234 246 247 234 287 305 276 263 273 252 256 283 278 285 265 235 262 277 269 215 204 199 216 217 203 187 222 222 220 215 215 220 224 222 223 222 229 230 229 225 225 223 223 227 236 245 252
215 229 248 250 234 236 241 268 288 276 264 278 274 269 280 280 276 266 249 247 256 258 222 225 202 210 205 187 223 228 239 224 224 222 224 223 219 215 218 220 234 234 227 227 229 230 233 239 244
220 234 228 242 263 261 251 250 251 258 263 258 258 259 266 259 259 262 260 265 261 254 251 229 219 226 233 204 207 225 235 223 229 229 227 224 218 213 208 216 224 237 229 224 229 232 236 244 240
219 232 250 226 247 239 245 247 244 248 249 260 261 258 258 261 261 257 255 260 258 253 250 267 220 228 242 241 205 215 227 223 226 221 230 230 222 212 218 214 208 226 233 226 223 221 220 239 239
234 245 238 251 232 237 238 247 249 244 232 207 219 238 254 262 261 265 265 263 253 261 250 250 235 230 235 244 236 209 217 220 227 228 221 235 223 218 212 221 215 204 228 207 230 227 218 228 239
233 240 253 224 222 227 220 253 255 227 215 220 233 238 241 245 258 268 269 259 260 241 236 265 264 244 236 242 247 235 220 226 221 230 228 230 235 220 213 222 221 210 204 211 210 213 219 229 230
216 239 224 252 219 194 198 245 236 142 168 226 238 252 260 253 250 249 257 264 266 276 247 254 252 262 256 244 249 249 238 225 224 225 230 224 232 228 217 219 224 219 211 213 215 220 224 229 232
213 211 237 248 163 186 240 228 259 269 255 231 231 235 251 255 260 257 244 249 256 263 282 287 273 254 248 249 245 245 250 239 230 225 231 228 233 232 222 224 220 221 217 220 226 226 229 226 220
281 305 308 201 176 219 243 273 284 282 281 275 271 264 259 257 261 245 240 247 251 252 276 273 281 284 266 249 244 246 247 248 236 230 228 229 226 234 229 230 227 215 223 218 218 221 222 222 210
282 283 278 290 298 284 265 272 275 271 268 264 268 270 270 277 277 285 302 286 279 272 257 257 279 292 297 281 251 244 249 252 250 239 229 228 232 237 240 230 231 226 223 227 223 225 222 220 217
255 257 271 269 276 262 294 272 256 248 241 242 240 237 246 241 250 272 285 302 315 333 332 326 317 317 303 295 274 259 250 249 244 242 239 231 231 235 237 235 232 230 218 226 224 214 219 224 220
246 238 240 268 279 266 267 292 296 290 269 251 237 230 52 27 4 352 356 345 330 325 325 323 315 311 315 302 289 278 257 251 249 247 238 235 231 232 234 235 231 227 218 220 225 218 219 224 221
249 315 329 294 277 279 273 268 267 254 241 163 61 46 25 11 351 349 338 325 317 310 312 318 308 306 311 305 297 286 272 262 254 251 242 236 234 228 232 229 237 235 216 223 220 221 218 221 215
335 309 285 271 259 258 259 250 262 274 55 69 58 31 11 357 344 326 311 304 302 323 311 310 315 315 303 295 289 284 276 270 257 251 245 242 238 235 229 230 233 232 219 216 219 218 217 220 224
240 230 262 264 237 247 264 349 281 346 99 79 51 6 14 2 346 322 315 314 315 314 306 306 311 306 309 307 306 290 276 270 263 251 247 242 240 235 235 229 226 228 225 218 214 213 217 216 224
304 297 273 265 287 301 317 225 286 153 97 109 52 31 346 299 292 289 291 292 297 295 304 310 305 309 303 309 305 305 281 278 266 257 250 245 242 240 239 235 234 229 222 213 213 213 217 223 225
278 310 359 321 283 275 277 284 260 135 117 103 160 220 238 266 280 283 275 286 292 294 299 295 294 297 306 303 308 307 304 277 277 262 261 250 245 248 248 242 237 247 224 215 207 210 209 212 215
261 269 278 258 271 262 258 284 80 81 87 359 320 322 307 288 282 306 300 293 293 294 291 289 288 292 298 312 305 302 307 301 292 271 267 263 253 248 252 253 254 243 229 215 203 201 206 213 214
255 233 252 257 200 231 277 265 93 10 12 300 296 295 283 284 303 309 307 299 298 295 296 296 297 294 297 303 304 304 309 300 296 294 271 270 254 251 260 257 220 214 238 224 216 209 204 211 219
277 249 225 246 244 241 239 257 282 349 274 256 251 270 304 319 308 303 295 296 296 295 293 296 297 299 301 299 297 307 299 308 300 291 291 280 266 257 263 264 247 196 220 232 213 229 217 215 222
Wind_Speed_850mb
21 26 29 33 14 15 35 42 46 3 13 6 15 6 27 49 25 17 21 18 28 36 46 44 44 44 43 42 39 34 33 31 30 27 23 21 20 22 26 29 29 28 25 20 17 16 17 18 17
24 25 29 37 21 27 30 42 39 18 31 14 4 9 17 35 33 34 25 27 26 32 45 45 46 44 43 41 39 34 33 31 30 27 24 20 20 23 25 25 24 22 19 16 15 14 16 15 14
24 22 33 20 26 33 33 25 10 18 17 4 4 8 16 18 29 22 26 29 22 26 43 43 46 47 44 40 38 34 33 30 30 27 24 20 21 22 25 25 22 18 15 13 13 14 14 14 13
19 29 31 25 39 44 45 22 33 3 9 0 8 19 22 21 12 16 26 30 26 25 33 43 43 44 44 41 39 36 34 30 30 28 24 20 20 22 22 22 20 18 15 14 13 12 12 12 10
33 30 26 31 41 46 29 17 24 20 2 9 5 32 37 23 21 22 25 26 24 27 31 38 42 42 40 39 37 35 36 32 31 31 28 22 20 21 21 22 21 19 17 15 13 13 12 11 9
39 41 28 33 42 42 34 23 16 16 17 6 5 17 35 24 20 17 19 22 23 27 29 25 41 42 41 38 37 34 34 37 35 36 32 27 23 23 23 24 23 22 19 17 15 13 12 12 10
38 26 36 41 40 37 31 12 20 18 25 10 15 4 36 28 17 12 13 17 22 26 22 18 42 44 42 39 37 36 35 36 40 39 36 30 28 26 26 26 26 24 22 19 17 15 15 14 11
51 28 46 42 36 39 30 40 36 21 28 11 9 6 22 20 13 4 11 15 21 26 25 20 42 45 43 42 41 38 36 36 39 43 38 33 30 29 30 30 30 28 26 23 20 18 17 15 12
55 30 33 47 45 33 27 2 40 10 31 22 10 18 14 15 5 7 10 14 18 29 29 21 18 42 45 42 42 41 39 39 41 43 43 40 36 34 35 35 35 31 28 26 23 21 20 18 14
41 32 50 42 40 36 47 38 30 15 40 40 34 33 27 19 10 12 16 18 22 26 30 29 28 22 34 34 37 46 45 45 47 50 49 47 42 40 39 40 40 37 34 30 27 25 22 20 16
54 39 38 51 49 44 18 24 18 26 38 30 26 27 27 21 17 15 16 24 18 30 34 40 42 33 27 39 48 35 49 52 55 55 55 52 49 41 35 37 40 41 38 35 32 28 24 21 16
39 50 53 49 53 14 17 23 34 35 38 35 26 32 31 27 30 29 32 31 29 26 36 40 48 43 38 34 49 47 40 57 60 59 59 58 56 46 46 47 43 41 44 39 36 31 27 25 19
44 37 51 55 42 13 21 28 31 41 39 36 33 31 28 33 38 38 38 40 35 26 31 48 45 41 37 41 46 45 38 46 46 53 59 61 57 53 54 46 41 37 42 42 40 32 24 24 26
35 48 41 27 37 31 31 33 34 39 36 35 31 29 34 32 32 33 34 40 36 30 37 26 43 40 43 48 55 51 51 46 56 49 56 61 64 63 56 59 53 44 37 39 30 37 35 36 31
46 13 29 39 26 31 31 30 34 44 39 37 32 29 31 31 31 30 31 27 38 41 36 39 18 48 58 61 53 61 60 57 58 58 59 63 66 69 66 65 62 54 43 43 41 35 42 44 33
24 26 27 34 37 35 29 28 29 38 46 35 17 27 33 35 32 34 31 31 32 19 15 22 34 28 53 61 64 59 60 61 63 61 62 71 68 77 78 78 69 68 54 50 49 50 52 49 43
22 27 36 35 45 26 29 26 30 24 17 20 24 27 34 35 35 35 32 33 21 16 17 25 33 32 37 60 66 69 61 68 59 61 66 73 77 72 81 84 78 75 72 68 69 70 64 52 39
35 36 30 34 30 24 23 28 26 31 27 28 37 29 31 30 28 28 31 32 34 39 38 40 41 39 38 55 57 61 66 62 79 85 66 77 80 80 86 83 83 77 80 80 77 75 67 58 45
37 24 25 13 8 10 13 17 24 33 35 31 32 33 33 28 26 27 29 32 31 29 40 37 38 43 44 41 60 64 70 74 71 81 84 73 83 84 82 91 85 76 77 80 76 71 59 61 52
19 17 26 25 22 18 21 26 28 30 34 38 36 34 32 23 26 21 21 18 18 27 35 32 25 31 48 44 49 65 68 72 74 84 78 83 85 89 85 83 91 95 83 81 79 71 65 67 62
22 24 25 27 25 12 17 31 39 37 48 48 33 23 15 26 24 20 21 27 23 18 17 15 21 17 24 31 41 54 67 70 70 73 78 83 79 91 89 83 79 90 97 94 87 78 77 73 71
23 24 25 18 20 20 24 27 31 29 26 29 30 28 22 33 32 29 25 28 31 34 37 36 40 40 38 44 46 48 64 80 90 87 83 80 84 87 85 87 84 78 85 89 91 88 82 75 61
22 19 18 16 24 28 33 23 28 31 32 5 28 31 28 21 24 31 32 32 33 32 29 34 40 46 52 54 53 60 67 71 82 79 85 84 82 91 95 93 95 88 91 92 86 78 88 87 80
15 17 25 29 28 28 39 36 31 14 20 17 21 18 18 19 19 23 26 31 30 28 33 43 39 47 49 56 66 67 75 72 76 87 87 84 92 94 102 107 112 102 93 89 83 85 79 82 73
23 23 20 24 23 24 17 13 16 13 20 14 12 12 11 14 18 24 31 38 40 40 35 42 44 50 41 44 68 73 69 77 77 90 90 91 90 102 111 112 111 109 106 102 86 82 86 78 68
20 23 14 18 21 26 34 13 14 2 17 19 10 13 12 14 21 22 31 32 34 39 42 44 45 50 56 57 62 76 72 63 74 78 100 93 93 108 104 102 108 109 113 102 104 89 81 74 70
13 21 22 18 23 23 24 36 27 22 20 23 14 20 20 20 21 33 38 28 36 38 39 39 49 50 53 54 62 67 68 66 64 75 83 103 97 102 96 100 101 71 83 94 90 80 70 67 62
25 19 16 12 8 16 19 15 10 19 10 4 16 23 19 23 31 30 27 32 32 37 43 44 41 45 48 54 59 61 64 61 62 70 82 88 96 92 70 58 109 129 128 71 72 71 65 61 60
16 19 22 22 15 8 10 13 16 15 11 14 19 27 31 32 30 32 35 39 40 42 44 47 45 44 46 53 58 61 63 64 59 53 66 71 78 76 39 42 32 87 46 59 63 59 56 51 51
21 21 19 11 21 19 20 27 31 10 12 22 30 32 33 28 32 39 43 42 43 48 50 47 49 45 49 53 58 59 59 63 64 67 52 60 71 83 57 44 38 35 60 42 39 55 49 51 55
Wind_Direction_850mb
256 301 291 266 247 231 253 246 262 92 261 46 32 340 341 48 35 108 109 118 160 157 150 154 158 160 161 162 161 164 161 159 155 152 147 144 142 141 138 140 143 138 135 134 129 132 130 129 125
258 286 284 260 238 241 238 245 257 157 83 76 347 223 259 58 57 101 110 132 165 154 154 156 160 163 165 167 165 171 169 167 164 160 154 149 149 151 150 153 151 145 144 141 141 141 135 133 125
258 271 276 243 238 241 250 340 62 67 59 54 234 249 30 9 56 79 113 141 153 163 161 161 162 164 168 170 173 176 177 176 175 170 165 156 158 164 164 164 162 160 156 154 154 149 142 139 129
265 261 243 259 246 240 254 231 243 27 155 290 328 98 81 56 61 88 126 150 139 157 163 166 167 169 171 172 178 183 184 187 186 181 177 170 171 174 177 179 178 174 170 169 168 160 154 152 144
249 254 245 240 241 253 251 271 198 222 101 159 179 105 92 78 84 109 130 149 147 150 185 175 174 173 177 180 183 189 193 193 197 193 187 185 185 186 188 190 190 186 179 181 181 177 172 172 173
239 228 246 234 240 237 259 207 210 272 279 252 255 101 104 95 98 118 137 153 157 160 193 182 182 181 182 186 187 192 201 199 201 201 198 194 195 198 200 202 199 195 190 189 193 189 190 194 199
230 236 233 243 252 243 237 211 272 249 269 275 25 149 119 89 83 127 152 158 165 167 204 206 191 186 187 189 193 194 197 204 200 203 206 205 206 204 209 212 209 205 200 198 200 202 205 209 211
222 241 245 244 246 257 256 210 215 243 269 22 73 241 89 80 58 126 175 176 179 171 192 237 193 191 192 194 196 198 198 202 202 201 209 216 220 217 217 219 217 212 208 205 208 211 218 221 226
218 234 239 244 250 242 251 227 247 258 298 303 290 289 325 68 8 297 221 196 191 176 182 205 217 197 197 203 201 202 203 202 204 208 212 217 227 226 225 223 221 219 216 213 214 219 230 236 239
225 224 236 241 249 275 280 312 230 230 247 258 257 262 277 280 262 257 272 223 214 189 179 203 218 229 200 196 214 207 207 207 209 213 217 222 224 233 235 228 228 222 217 216 220 225 232 246 255
218 235 234 246 247 234 287 305 276 263 273 252 256 283 278 285 265 235 262 277 269 215 204 199 216 217 203 187 222 222 220 215 215 220 224 222 223 222 229 230 229 225 225 223 223 227 236 245 252
215 229 248 250 234 236 241 268 288 276 264 278 274 269 280 280 276 266 249 247 256 258 222 225 202 210 205 187 223 228 239 224 224 222 224 223 219 215 218 220 234 234 227 227 229 230 233 239 244
220 234 228 242 263 261 251 250 251 258 263 258 258 259 266 259 259 262 260 265 261 254 251 229 219 226 233 204 207 225 235 223 229 229 227 224 218 213 208 216 224 237 229 224 229 232 236 244 240
219 232 250 226 247 239 245 247 244 248 249 260 261 258 258 261 261 257 255 260 258 253 250 267 220 228 242 241 205 215 227 223 226 221 230 230 222 212 218 214 208 226 233 226 223 221 220 239 239
234 245 238 251 232 237 238 247 249 244 232 207 219 238 254 262 261 265 265 263 253 261 250 250 235 230 235 244 236 209 217 220 227 228 221 235 223 218 212 221 215 204 228 207 230 227 218 228 239
233 240 253 224 222 227 220 253 255 227 215 220 233 238 241 245 258 268 269 259 260 241 236 265 264 244 236 242 247 235 220 226 221 230 228 230 235 220 213 222 221 210 204 211 210 213 219 229 230
216 239 224 252 219 194 198 245 236 142 168 226 238 252 260 253 250 249 257 264 266 276 247 254 252 262 256 244 249 249 238 225 224 225 230 224 232 228 217 219 224 219 211 213 215 220 224 229 232
213 211 237 248 163 186 240 228 259 269 255 231 231 235 251 255 260 257 244 249 256 263 282 287 273 254 248 249 245 245 250 239 230 225 231 228 233 232 222 224 220 221 217 220 226 226 229 226 220
281 305 308 201 176 219 243 273 284 282 281 275 271 264 259 257 261 245 240 247 251 252 276 273 281 284 266 249 244 246 247 248 236 230 228 229 226 234 229 230 227 215 223 218 218 221 222 222 210
282 283 278 290 298 284 265 272 275 271 268 264 268 270 270 277 277 285 302 286 279 272 257 257 279 292 297 281 251 244 249 252 250 239 229 228 232 237 240 230 231 226 223 227 223 225 222 220 217
255 257 271 269 276 262 294 272 256 248 241 242 240 237 246 241 250 272 285 302 315 333 332 326 317 317 303 295 274 259 250 249 244 242 239 231 231 235 237 235 232 230 218 226 224 214 219 224 220
246 238 240 268 279 266 267 292 296 290 269 251 237 230 52 27 4 352 356 345 330 325 325 323 315 311 315 302 289 278 257 251 249 247 238 235 231 232 234 235 231 227 218 220 225 218 219 224 221
249 315 329 294 277 279 273 268 267 254 241 163 61 46 25 11 351 349 338 325 317 310 312 318 308 306 311 305 297 286 272 262 254 251 242 236 234 228 232 229 237 235 216 223 220 221 218 221 215
335 309 285 271 259 258 259 250 262 274 55 69 58 31 11 357 344 326 311 304 302 323 311 310 315 315 303 295 289 284 276 270 257 251 245 242 238 235 229 230 233 232 219 216 219 218 217 220 224
240 230 262 264 237 247 264 349 281 346 99 79 51 6 14 2 346 322 315 314 315 314 306 306 311 306 309 307 306 290 276 270 263 251 247 242 240 235 235 229 226 228 225 218 214 213 217 216 224
304 297 273 265 287 301 317 225 286 153 97 109 52 31 346 299 292 289 291 292 297 295 304 310 305 309 303 309 305 305 281 278 266 257 250 245 242 240 239 235 234 229 222 213 213 213 217 223 225
278 310 359 321 283 275 277 284 260 135 117 103 160 220 238 266 280 283 275 286 292 294 299 295 294 297 306 303 308 307 304 277 277 262 261 250 245 248 248 242 237 247 224 215 207 210 209 212 215
261 269 278 258 271 262 258 284 80 81 87 359 320 322 307 288 282 306 300 293 293 294 291 289 288 292 298 312 305 302 307 301 292 271 267 263 253 248 252 253 254 243 229 215 203 201 206 213 214
255 233 252 257 200 231 277 265 93 10 12 300 296 295 283 284 303 309 307 299 298 295 296 296 297 294 297 303 304 304 309 300 296 294 271 270 254 251 260 257 220 214 238 224 216 209 204 211 219
277 249 225 246 244 241 239 257 282 349 274 256 251 270 304 319 308 303 295 296 296 295 293 296 297 299 301 299 297 307 299 308 300 291 291 280 266 257 263 264 247 196 220 232 213 229 217 215 222